Regional Weather Roundup
Issued by NWS

Home | Current Version | Previous Version | Text Only | Print | Product List | Glossary On
Versions: 1 2 3 4 5 6 7 8 9 10 11 12 13 14 15 16 17 18 19 20 21 22 23 24 25 26 27 28 29 30 31 32 33 34 35 36 37 38 39 40 41 42 43 44 45 46 47 48 49 50
000
ASUS44 KFWD 011003
RWRTX
NORTH TEXAS HOURLY WEATHER ROUNDUP
NATIONAL WEATHER SERVICE FORT WORTH TX
500 AM CDT SUN MAY 01 2016

NOTE: "FAIR" INDICATES FEW OR NO CLOUDS BELOW 12,000 FEET WITH NO
SIGNIFICANT WEATHER AND/OR OBSTRUCTIONS TO VISIBILITY.

TXZ118-119-011100-
DALLAS/FORT WORTH METROPLEX

CITY           SKY/WX    TMP DP  RH WIND       PRES   REMARKS
DFW AIRPORT    CLEAR     61  52  72 N14       29.89S
DALLAS LOVE    PTCLDY    62  56  80 NE9       29.90R
FTW MEACHAM    PTCLDY    59  52  77 N14       29.91R
DAL-EXECUTIVE  CLEAR     61  57  87 N7        29.89R
FTW-ALLIANCE   CLEAR     57  51  80 N10       29.92R
FTW-NAS-JRB    PTCLDY    61  52  72 N13       29.92R
ARLINGTON      CLEAR     64  57  78 N12       29.90R
GRAND PRAIRIE  CLEAR     61  55  82 N9        29.91R
MESQUITE       CLEAR     61  61  99 N7        29.89S
LANCASTER      CLEAR     61  57  88 N6        29.89S
$$

TXZ091>094-102>105-117-120-121-131>134-011100-
NORTH CENTRAL TEXAS

CITY           SKY/WX    TMP DP  RH WIND       PRES   REMARKS
SHRMAN/DENISON CLEAR     52  45  77 N7        29.95R
BRIDGEPORT     CLEAR     55  49  80 CALM      29.98R
DECATUR        CLEAR     56  46  71 N7        29.96R
DENTON         CLEAR     55  50  83 N8        29.93R
MCKINNEY       CLEAR     57  51  80 N8        29.92R
ROCKWALL       CLEAR     60  60 100 N10G20    29.89R
TERRELL        CLEAR     60  58  92 NE5       29.89S
WAXAHACHIE     CLEAR     59  59 100 N5        29.90S
CLEBURNE       CLEAR     59  57  94 N8G14     29.91R
GRANBURY       CLEAR     58  53  83 NW5       29.93R
$$

TXZ083>090-098>101-113>116-127>130-139>142-154-155-011100-
WESTERN NORTH TEXAS

CITY           SKY/WX    TMP DP  RH WIND       PRES   REMARKS
WICHITA FALLS  CLEAR     52  42  69 N17       30.01R
WF-KICKAPOO    CLEAR     56  42  58 N14G23    30.03R
VERNON         CLEAR     50  36  57 N10       30.07R
ABILENE        CLEAR     54  48  80 N13       29.97R
ABILENE-DYESS  CLEAR     53  48  84 N13       29.96S
MINERAL WELLS  CLEAR     57  49  74 N10       29.93R
STEPHENVILLE   CLEAR     58  50  76 N8        29.94R
COMANCHE       CLEAR     57  55  92 N7        29.92R
COLEMAN        CLEAR     57  51  78 E6        29.93R
$$

TXZ143>147-156>162-174-175-011100-
CENTRAL TEXAS

CITY           SKY/WX    TMP DP  RH WIND       PRES   REMARKS
WACO           CLEAR     60  59  96 N6        29.87R
WACO-MCGREGOR  CLEAR     61  60  97 N6        29.88R
HILLSBORO      CLEAR     59  58  96 N5        29.88R
CORSICANA      CLEAR     63  60  90 N5        29.88S
MEXIA          CLEAR     63  63  99 N6        29.84S
HEARNE         CLEAR     66  64  90 CALM      29.84S
CAMERON        CLEAR     64  63  95 CALM      29.84R
TEMPLE         CLEAR     62  61  96 NE6       29.86R
KILLEEN        CLEAR     60  58  96 N7        29.86R
KILLEEN-SKYLRK CLEAR     61  60  97 N7        29.87R
FORT HOOD      CLEAR     60  59  96 N6        29.85R
HAMILTON       CLEAR     57  57  99 N5        29.91R
LAMPASAS       CLEAR     60  58  92 N5        29.88R
$$

TXZ095>097-106>112-122>126-135>138-148>153-164>167-011100-
EAST TEXAS

CITY           SKY/WX    TMP DP  RH WIND       PRES   REMARKS
PARIS          CLEAR     59  50  72 N7        29.90S
SULPHUR SPRNGS CLEAR     62  61  97 N8        29.92S
MOUNT PLEASANT CLEAR     62  60  93 N6        29.90R
MINEOLA        CLEAR     63  61  94 N3        29.89S
TYLER          CLEAR     64  59  83 N9        29.87S
LONGVIEW       CLEAR     64  60  87 N3        29.86S
ATHENS         CLEAR     61  61 100 N3        29.87R
PALESTINE      CLEAR     64  63  94 NE6       29.87S
JACKSONVILLE   CLEAR     64  63  96 NE7       29.88F
CENTER         FAIR      70  66  89 N6        29.83F
NACOGDOCHES    CLEAR     66  64  94 N7        29.84S
LUFKIN         CLEAR     68  65  90 N7        29.82F
$$

SUPPLEMENTAL OBSERVATIONS (CENTRAL)

CITY           SKY/WX    TMP DP  RH WIND       PRES   REMARKS
$$

SUPPLEMENTAL OBSERVATIONS (WEST)

CITY           SKY/WX    TMP DP  RH WIND       PRES   REMARKS
$$

SUPPLEMENTAL OBSERVATIONS (EAST)

CITY           SKY/WX    TMP DP  RH WIND       PRES   REMARKS
$$

SUPPLEMENTAL OBSERVATIONS ARE A COLLECTION OF AUTOMATED INSTRUMENTS
THAT ARE MAINTAINED BY A VARIETY OF FEDERAL AND STATE AGENCIES.
CERTAIN ELEMENTS...SUCH AS HUMIDITY VALUES AND SUSTAINED WIND
SPEEDS...MAY BE APPROXIMATED.





USA.gov is the U.S. government's official web portal to all federal, state and local government web resources and services.